Погода Огурцово

Погода Огурцово : погода сейчас, прогноз погоды и архив. Всё, что Вы хотите узнать о погоде Огурцово!

Хотите узнать прогноз погоды Огурцово? Тогда Вам сюда: Погода Огурцово

Поиск расширенной информации на нашем сайте:

Другие новости

Новости СМИ2

Главная страница сайта

Новости сайта

02.10.2013

Напоминаем, что на нашем новом сайте вы можете получить высокодетализированные прогнозы погоды по пунктам России, СНГ и мира (включающие важные для авиации метеовеличины, такие как направление и скорость ветра, видимость, явления погоды, количество и форма облачности, нижняя и верхняя граница облачности), а также ознакомиться с разнообразными материалами по авиационной метеорологии и подборкой полезных ссылок на эту тему.

Сайт Метеоцентр.Азия посвящён разработке технологий оптимизации авиаметеорологического обслуживания, включая проектирование и перспективное создание нескольких автоматизированных авиаметеорологических систем:
- система выпуска высокодетальных прогностических карт явлений погоды для нижнего воздушного пространства по России и ближнему зарубежью;
- система верификации прогнозов TAF (выпускаемых синоптиками официальных АМСГ РФ и ближнего зарубежья) и AUTOTAF (выпускаемых сайтом Метеоцентр.Азия) - выявление ошибок, онлайн-сопоставление с фактической погодой METAR, автоматическое внесение коррективов в прогнозы при резком отклонении фактической погоды от прогноза, подсчёт оправдываемости прогнозов по элементам и в целом;
- система обработки, анализа и отображения авиаметеорологической информации для применения провайдерами метеорологической информации.


Погода Огурцово - сегодня

Время (UTC), дата Ветер
(°,м/с) 
Видим.   Явления Облачность Т
(°С)
Тd
(°С)
f(%) Тe
(°С)
Pmin
(гПа)
dP
(гПа)
Po
(мм)
O2
(г/м3)
Тmin Tmax R s Состояние
почвы
18 27.04.17 250 (З) 20000 м    6/0 верхняя 
[Ci fib]
+16.9 +7.9 55 +18  1014.4  1.9  749  283           
21 27.04.17 270 (З) 20000 м    3/0 верхняя 
[Ci fib]
+13.6 +9.2 75 +14  1015.9  1.3  750  286           
00 28.04.17 020 (С) 15000 м    10/4 600 м верхняя 
[Sc diur, vesp|Ci fib]
+11.9 +8.4 79 +12  1017.8  1.7  751  289  +10.3         
03 28.04.17 020 (С) 11000 м  слаб. ливневой дождь  10/10 600 м кучево-дожд. 
[Cb cap]
+10 +6.2 77 +9  1019.6  1.7  753  292  +10         
06 28.04.17 320 (СЗ) 13000 м  слаб. ливневой дождь  10/10 600 м кучево-дожд. 
[Cb cap]
+10.4 +6.8 78 +10  1020.3  0.7  753  291           
09 28.04.17 330 (СЗ) 17000 м  {ливн. осадки}  10/10 600 м кучево-дожд. 
[Cb cap]
+11.2 +7.1 76 +11  1020.1  -0.1  753  290           
12 28.04.17 300 (СЗ) 19000 м  {ливн. осадки}  10/10 600 м кучево-дожд. 
[Cb cap]
+10.8 +6.8 76 +11  1019.5  -0.6  753  291    +12.1  0.4     
15 28.04.17 220 (ЮЗ) 20000 м    10/10 600 м кучево-дожд. 
[Cb cap]
+9.9 +6.8 81 +11  1020.1  0.5  753  292           
18 28.04.17 290 (З) 20000 м    9/5 600 м верхняя 
[Sc|Ci fib]
+8.8 +4.5 74 +8  1020.6  0.5  753  293           
21 28.04.17 190 (Ю) 20000 м    4/0 верхняя 
[Ci fib]
+3.4 +1.6 88 +3  1021.2  0.2  754  300           
00 29.04.17 200 (Ю) 18000 м    3/0 верхняя 
[Ci fib]
+4.8 +3.1 89 +4  1021  -0.1  753  298  +3.2         
03 29.04.17 190 (Ю) 20000 м    3/0 верхняя 
[Ci fib]
+11 +3.3 59 +10  1020.1  -0.5  753  291           
06 29.04.17 190 (Ю) 9-13{13}  23000 м    3/0 верхняя 
[Ci fib]
+15.1 -0.1 35 +14  1018.2  -1.7  752  287           
09 29.04.17 200 (Ю) 9-14{16}  35000 м    8/0 верхняя 
[Ci fib]
+16.4 -0.8 31 +16  1015.7  -2.4  750  285           
12 29.04.17 230 (ЮЗ) 7-14{14}  19000 м    10/4 600 м верхняя 
[Sc diur, vesp|Ci fib]
+17.7 -1.7 27 +17  1014.6  -1  749  284    +17.9       
15 29.04.17 330 (СЗ) 5{14}  20000 м    10/9 600 м верхняя 
[Sc|Ci fib]
+8.6 +1.8 62 +7  1018.3  3.1  752  293           
18 29.04.17 360 (С) 10 км  слаб. ливневой дождь  10/10 600 м кучево-дожд. 
[Cb cap]
+5.7 +3.1 83 +7  1019.6  1.2  752  297           
21 29.04.17 040 (СВ) 10 км  {ливн. осадки}  10/10 600 м кучево-дожд. 
[Cb cap]
+4.9 +1.5 79 +6  1018.9  -0.8  752  297           
00 30.04.17 тихо ()   19000 м  {ливн. осадки}  10/10 600 м 
[Sc]
+4 +1.6 84 +4  1018.8  -0.1  752  298  +4    0.4     
03 30.04.17 260 (З) 16000 м    10/10 600 м кучево-дожд. 
[Cb cap]
+6.3 +1.8 73 +7  1018.5  -0.1  752  296           
06 30.04.17 230 (ЮЗ) 18000 м    10/9 600 м кучево-дожд., средняя 
[Cb cap|Ac trans]
+7.6 +0.3 60 +6  1019  0.5  752  295           
09 30.04.17 080 (В) 19000 м    10/8 600 м кучево-дожд., верхняя 
[Cb cap|Ci fib]
+6.4 +0.5 66 +5  1019.1  752  296           
12 30.04.17 190 (Ю) 23000 м  {ливн. осадки}  8/4 600 м кучево-дожд., верхняя 
[Cb cap|Ci fib]
+7.8 +1 62 +8  1019.1  0.1  752  295    +9.7     
15 30.04.17 330 (СЗ) 10 км  слаб. ливневой дождь  10/10 600 м кучево-дожд. 
[Cb cap]
+4.7 +2 83 +3  1020.5  1.2  753  298           
18 30.04.17 080 (В) 20000 м  {ливн. осадки}  10/10 600 м кучево-дожд. 
[Cb cap]
+4.1 +1.7 84 +5  1021.3  0.7  754  299           
Время (UTC), дата Ветер
(°,м/с) 
Видим.   Явления Облачность Т
(°С)
Тd
(°С)
f(%) Тe
(°С)
Pmin
(гПа)
dP
(гПа)
Po
(мм)
O2
(г/м3)
Тmin Tmax R s Состояние
почвы

Для получения пояснительной информации подведите курсор к названию столбца.

ПОГОДА Огурцово - архив

Всё, что Вы хотите узнать о погоде Огурцово - удобно и подробно!

Выберите нужную дату (начиная с 1 января 2015* года) и нажмите кнопку "Найти".
Будут отображены архивные сводки погоды по пункту Огурцово, начиная с указанной даты.


Отображать данные в формате CSV (для использования в таблицах Excel)


Внимание! Наш архив погоды предназначен исключительно для личного некоммерческого использования в познавательных целях. Если Вам необходимы официальные справки о состоянии погоды (для производственных, юридических, коммерческих и т.п. целей), обращайтесь в органы Росгидромета.

*Примечание: данная дата относится к архиву по метеостанциям СССР (Россия, СНГ, Балтия).
Архив по метеостанциям Зарубежной Европы и Азии (кроме Китая) хранится 10 дней, по другим регионам земного шара (Китай, Африка, Америка, Австралия, Океания) - 1 день.

Огурцово - район местоположения метеостанции


Название, широта, долгота, высота метеостанции:
Огурцово 54.9°ш. 82.9°д. 133 м над ур. моря [Российская Федерация]

Дополнительная информация

В oтличие oт бoльшинства пoгoдных сайтoв мы публикуем пoдрoбную метеoинфoрмацию в детальнoм прoфессиoнальнoм фoрмате.

Характеристики температуры и влажнoсти вoздуха измеряются на высoте 2 м в тени вдали oт зданий и деревьев.
Скoрoсть ветра измеряется на высoте 10 м (на урoвне рoста челoвека скoрoсть ветра ниже в 1.5-2 раза). Если метеoстанция нахoдится в гoрoде или в лесу, тo скoрoсть ветра занижена на 2-4 м/с пo сравнению с oткрытым местoм. Скoрoсть ветра над акватoриями крупных рек и oзёр, а также на вершинах хoлмoв на 2-5 м/с выше, чем в oбычных услoвиях.
Атмoсфернoе давление в разных тoчках местнoсти мoжет значительнo oтличаться oт давления на метеoстанции, в зависимoсти oт услoвий рельефа (при пoдъёме на 10 м давление пoнижается примернo на 1 мм рт.ст.).